Wind_Speed
85 82 80 79 79 76 74 73 72 74 81 91 97 103 107 112 115 119 125 126 128 130 129 126 123 122 121 118 114 109 104 100 96 89 88 83 76 72
80 78 77 75 74 72 72 72 72 69 66 79 87 95 104 109 113 115 116 121 124 128 130 131 131 129 123 124 121 118 114 106 101 96 92 89 84 79
76 73 72 72 72 73 74 75 74 73 68 65 72 80 88 98 107 114 115 114 116 121 124 127 126 127 129 128 123 122 119 113 107 104 99 93 91 88
72 73 73 75 77 78 80 81 81 83 79 70 73 76 80 84 86 93 103 113 116 116 117 119 119 124 130 126 126 126 124 119 114 110 103 99 91 89
72 72 74 77 79 81 84 86 88 89 88 81 76 81 82 83 81 84 86 94 104 109 113 116 117 117 119 118 124 123 125 123 120 115 111 102 100 95
75 77 79 80 81 82 84 86 87 90 93 93 88 82 83 84 79 79 84 87 89 96 101 108 113 114 113 114 115 117 119 125 123 118 115 109 103 101
77 80 83 85 87 88 88 88 88 90 93 93 93 89 88 81 73 74 74 80 86 88 91 96 102 105 108 112 113 111 112 116 124 123 120 112 103 98
77 82 87 89 92 94 96 94 91 90 91 91 89 84 85 80 77 73 71 72 77 87 83 91 93 97 103 103 105 109 110 108 114 120 124 118 107 101
81 85 92 95 96 98 99 96 95 94 91 84 82 79 78 75 72 72 70 69 75 80 75 89 89 92 96 99 99 102 105 105 105 110 117 120 112 102
85 90 96 99 100 103 101 96 94 92 90 84 76 72 70 67 66 68 69 69 74 75 69 83 85 88 90 94 96 95 95 98 100 102 109 114 116 109
89 95 98 102 104 104 102 96 96 94 90 84 77 69 62 61 59 61 61 64 69 70 66 75 82 84 86 90 90 90 90 90 93 95 98 106 115 115
93 99 103 106 107 107 102 97 93 89 86 82 75 67 60 56 53 52 53 57 60 62 61 68 74 78 82 86 89 89 88 85 85 88 92 98 108 117
93 100 105 110 111 110 102 96 89 83 80 74 68 64 58 51 47 45 44 47 51 52 53 61 63 66 74 83 85 88 87 83 81 82 89 91 97 99
97 104 109 112 115 112 105 99 88 80 75 67 62 58 53 48 44 41 40 41 44 46 47 52 56 59 63 71 77 83 85 84 78 77 85 85 87 85
101 106 112 115 117 113 107 96 84 76 70 67 60 53 49 45 42 40 37 38 38 40 41 46 48 50 56 61 67 71 77 79 78 82 84 85 84 83
102 107 112 116 114 109 104 92 81 72 65 62 59 52 46 42 39 38 36 35 36 37 38 42 44 45 48 52 58 64 69 72 76 81 82 81 82 82
102 106 111 116 111 110 106 92 80 70 64 57 51 48 46 42 39 36 33 33 34 35 37 39 41 43 44 46 49 55 60 65 71 76 78 76 78 82
104 108 112 113 108 105 98 89 80 72 62 55 49 45 42 40 38 34 32 32 33 32 34 35 37 40 41 43 44 47 51 55 61 67 71 74 75 81
105 111 113 112 109 104 96 86 76 69 61 53 50 46 41 37 36 34 31 29 31 31 31 33 34 36 39 41 41 42 45 49 54 61 66 71 75 78
107 112 115 112 109 102 93 86 77 70 61 53 47 44 40 38 35 33 31 28 27 30 29 30 32 33 36 38 39 40 42 44 48 54 60 65 70 74
108 112 115 115 109 101 93 86 76 66 59 53 48 42 39 36 34 32 29 28 26 27 28 28 30 31 33 35 37 38 40 41 44 48 54 60 63 67
109 112 115 116 108 100 93 85 78 66 59 51 46 42 38 36 34 32 30 26 25 25 26 28 28 29 31 32 35 36 37 39 41 44 48 53 57 64
110 113 116 113 106 97 90 84 77 66 56 51 46 41 36 34 32 30 29 27 23 23 25 26 27 27 29 30 31 34 36 37 39 41 43 46 51 56
Wind_Direction
303 301 301 301 301 298 293 287 279 270 268 265 262 261 262 262 259 258 258 256 255 254 255 254 251 251 253 254 254 253 253 254 255 256 255 255 254 256
305 305 305 305 304 303 300 297 294 286 277 270 266 264 262 261 261 260 258 257 256 255 254 254 254 253 251 251 253 253 253 252 253 254 254 253 253 255
307 307 308 307 306 304 303 301 297 293 288 284 276 271 267 262 261 261 261 259 257 257 256 255 254 254 254 249 248 251 253 252 251 251 252 252 252 252
311 312 312 311 310 308 305 303 300 298 295 291 285 279 274 269 265 262 261 261 259 258 256 256 254 253 252 252 250 246 249 251 250 249 248 249 251 251
315 316 316 315 313 310 307 305 302 300 298 295 289 285 280 276 272 267 262 259 259 258 257 256 256 254 253 253 251 250 247 248 248 249 248 248 248 249
315 315 316 316 314 312 309 305 302 299 297 295 294 291 285 281 275 268 267 262 259 257 255 254 254 254 253 252 252 250 249 246 247 248 249 248 248 249
315 317 317 317 316 313 311 306 303 300 296 296 295 294 291 286 280 274 267 264 262 257 255 255 253 253 253 252 251 250 249 247 246 246 247 247 246 247
318 319 319 318 318 317 315 311 305 300 298 298 297 295 292 289 285 279 274 267 261 256 255 253 252 251 250 251 251 251 250 247 245 244 246 247 245 246
318 320 319 319 319 319 318 314 309 305 302 302 298 296 293 289 284 280 274 268 262 259 254 252 251 249 250 250 250 249 249 249 246 245 243 246 245 244
318 320 319 319 319 319 319 317 312 308 307 306 304 300 295 289 283 278 274 269 263 258 252 249 251 250 250 249 249 248 249 249 248 245 244 242 243 243
320 321 320 322 321 319 320 319 316 313 311 311 308 304 298 291 284 279 272 267 265 262 254 251 249 248 248 248 248 248 248 246 245 245 244 242 240 241
319 321 323 324 323 322 321 320 317 315 314 312 310 306 301 295 289 281 275 270 266 264 259 255 250 247 246 247 247 248 247 247 246 244 243 241 240 237
319 322 324 325 324 323 321 320 319 318 315 313 310 307 304 299 293 286 280 273 269 265 262 257 254 249 246 245 245 246 247 247 245 242 243 242 242 240
318 323 325 326 325 324 324 323 322 320 316 314 311 308 305 302 297 291 284 275 270 266 261 259 255 251 247 246 243 244 246 246 246 241 241 242 244 241
321 324 326 326 327 325 324 323 324 323 320 317 313 310 306 304 300 294 287 280 273 268 263 259 256 252 249 246 244 242 241 243 242 241 240 242 242 240
321 324 325 327 327 324 325 325 326 324 322 318 314 312 309 305 301 296 290 282 275 271 264 261 259 254 249 246 244 243 241 239 239 239 240 239 240 237
321 324 326 328 327 327 326 327 328 327 324 320 314 311 310 308 303 297 289 282 277 271 266 261 258 256 252 248 244 241 240 239 238 239 240 239 236 236
322 326 326 329 328 327 327 327 329 328 326 322 317 314 310 307 303 298 292 286 280 273 267 261 256 255 254 251 247 243 239 237 236 237 236 235 232 233
324 326 328 330 329 328 328 328 330 328 327 324 319 316 312 307 302 298 293 287 280 275 268 263 258 254 253 251 249 243 239 235 232 231 234 233 232 230
325 327 330 330 329 329 329 330 331 329 326 324 320 316 313 309 305 299 296 291 281 275 270 264 259 255 251 249 248 246 242 237 232 232 233 233 233 233
326 328 330 331 330 330 330 330 331 330 325 323 321 317 313 309 304 299 297 292 285 277 272 266 260 256 250 246 246 245 243 240 236 232 230 232 230 232
327 329 331 331 330 330 330 330 329 330 327 323 320 316 314 310 306 301 296 293 286 279 272 268 262 256 252 246 243 243 242 240 237 234 232 230 230 229
327 330 331 331 330 329 328 329 328 328 327 324 321 317 314 308 304 300 297 295 289 280 272 266 261 256 251 246 243 240 240 240 237 235 234 232 230 230
Height
10592 10582 10572 10563 10553 10545 10538 10532 10534 10538 10534 10526 10522 10514 10509 10501 10503 10506 10506 10514 10521 10522 10525 10530 10538 10548 10556 10562 10572 10581 10589 10597 10604 10612 10618 10624 10627 10631
10568 10559 10549 10540 10531 10522 10514 10507 10501 10502 10511 10496 10491 10484 10479 10474 10467 10466 10471 10473 10478 10480 10486 10492 10498 10509 10525 10531 10539 10548 10557 10568 10579 10585 10592 10599 10606 10612
10550 10541 10532 10522 10513 10503 10493 10485 10478 10472 10475 10477 10465 10454 10449 10444 10439 10434 10435 10439 10443 10442 10446 10453 10463 10473 10479 10488 10504 10513 10522 10535 10546 10556 10566 10574 10581 10588
10532 10523 10513 10503 10493 10483 10473 10463 10454 10443 10440 10447 10435 10423 10413 10408 10410 10409 10403 10400 10401 10407 10411 10414 10425 10431 10429 10448 10464 10479 10488 10500 10513 10525 10536 10550 10557 10564
10518 10508 10498 10487 10476 10464 10451 10441 10429 10418 10409 10407 10408 10391 10382 10374 10377 10372 10373 10367 10362 10368 10373 10378 10382 10388 10400 10418 10421 10436 10455 10468 10480 10489 10504 10521 10531 10540
10504 10494 10483 10471 10459 10447 10433 10420 10408 10395 10383 10374 10367 10361 10348 10340 10342 10342 10337 10331 10335 10330 10337 10340 10343 10353 10367 10374 10387 10401 10413 10430 10444 10458 10473 10490 10504 10515
10489 10477 10465 10452 10438 10423 10411 10397 10383 10371 10356 10347 10336 10327 10313 10308 10307 10305 10307 10302 10295 10299 10304 10310 10317 10325 10330 10338 10351 10364 10378 10394 10409 10426 10440 10459 10475 10485
10474 10460 10447 10434 10417 10398 10381 10364 10350 10341 10328 10318 10306 10298 10284 10278 10273 10272 10272 10269 10263 10259 10281 10280 10285 10293 10294 10306 10317 10331 10344 10358 10374 10392 10409 10428 10444 10456
10458 10445 10429 10414 10399 10379 10360 10339 10320 10304 10295 10291 10278 10267 10258 10251 10243 10240 10238 10238 10229 10230 10260 10246 10256 10264 10269 10280 10290 10299 10310 10326 10343 10361 10377 10391 10411 10428
10441 10427 10411 10396 10377 10358 10338 10318 10296 10278 10266 10256 10250 10242 10229 10223 10216 10211 10208 10206 10200 10208 10234 10214 10228 10236 10244 10251 10260 10271 10285 10298 10314 10328 10344 10361 10379 10398
10421 10407 10392 10373 10355 10337 10316 10296 10274 10252 10236 10225 10217 10212 10204 10195 10191 10185 10183 10180 10175 10185 10202 10189 10197 10210 10219 10223 10234 10246 10259 10271 10283 10297 10313 10330 10348 10368
10405 10387 10367 10349 10331 10311 10291 10275 10257 10236 10218 10201 10189 10182 10179 10172 10167 10163 10161 10157 10158 10160 10171 10167 10172 10185 10194 10198 10209 10220 10232 10246 10259 10272 10286 10300 10315 10336
10393 10373 10352 10330 10309 10289 10270 10253 10237 10220 10199 10185 10173 10163 10155 10151 10147 10144 10142 10138 10137 10142 10146 10144 10152 10162 10168 10175 10185 10195 10207 10222 10236 10249 10259 10274 10289 10313
10374 10355 10334 10313 10290 10266 10247 10229 10215 10198 10179 10168 10158 10147 10140 10134 10129 10127 10123 10122 10121 10122 10126 10126 10132 10139 10147 10153 10166 10177 10187 10201 10215 10230 10241 10253 10268 10291
10354 10335 10314 10293 10268 10244 10226 10209 10195 10179 10162 10147 10139 10133 10126 10120 10115 10111 10109 10106 10106 10107 10110 10109 10113 10121 10128 10133 10142 10154 10165 10178 10192 10205 10220 10235 10250 10270
10336 10320 10301 10278 10253 10230 10210 10192 10179 10165 10151 10135 10121 10116 10112 10107 10103 10099 10095 10093 10092 10093 10095 10096 10098 10104 10111 10118 10125 10134 10144 10158 10170 10181 10195 10213 10226 10245
10326 10309 10286 10265 10240 10215 10190 10177 10165 10152 10136 10124 10114 10106 10098 10093 10090 10087 10084 10082 10080 10081 10082 10083 10086 10090 10096 10103 10110 10117 10126 10138 10149 10161 10174 10191 10205 10217
10310 10290 10269 10249 10226 10204 10184 10164 10148 10135 10124 10112 10102 10095 10088 10081 10078 10076 10073 10070 10069 10069 10070 10072 10074 10078 10082 10087 10094 10103 10112 10122 10132 10141 10154 10167 10182 10194
10291 10271 10251 10229 10206 10186 10167 10152 10138 10123 10111 10101 10090 10083 10077 10072 10068 10065 10063 10061 10058 10058 10059 10061 10063 10066 10069 10074 10080 10087 10095 10104 10115 10125 10133 10146 10160 10177
10272 10252 10232 10211 10191 10173 10154 10138 10124 10110 10098 10090 10082 10073 10066 10060 10057 10054 10051 10050 10049 10048 10049 10050 10052 10055 10058 10062 10067 10073 10080 10089 10099 10108 10117 10130 10142 10156
10256 10235 10214 10193 10173 10154 10138 10122 10113 10102 10089 10078 10070 10063 10056 10051 10048 10044 10041 10040 10040 10039 10039 10041 10042 10044 10048 10052 10056 10061 10067 10075 10084 10093 10102 10111 10124 10136
10239 10221 10199 10178 10158 10139 10125 10112 10097 10089 10078 10069 10061 10053 10046 10041 10037 10034 10031 10031 10030 10030 10030 10030 10032 10034 10037 10042 10046 10050 10055 10062 10069 10078 10087 10097 10106 10116
10222 10205 10186 10167 10148 10130 10113 10099 10087 10078 10070 10059 10050 10043 10038 10033 10029 10025 10023 10022 10022 10022 10021 10022 10022 10024 10027 10031 10036 10040 10044 10050 10056 10063 10071 10080 10090 10099